Regional Weather Roundup
Issued by NWS

Home | Current Version | Previous Version | Graphics & Text | Print | Product List | Glossary On
Versions: 1 2 3 4 5 6 7 8 9 10 11 12 13 14 15 16 17 18 19 20 21 22 23 24 25 26 27 28 29 30 31 32 33 34 35 36 37 38 39 40 41 42 43 44 45 46 47 48 49 50
000
ASUS43 KMPX 220610
RWRMN
WEATHER ROUNDUP FOR MINNESOTA
NATIONAL WEATHER SERVICE TWIN CITIES/CHANHASSEN MN
1200 AM CST MON DEC 22 2014


NOTE: "FAIR" INDICATES FEW OR NO CLOUDS BELOW 12,000 FEET WITH NO
SIGNIFICANT WEATHER AND/OR OBSTRUCTIONS TO VISIBILITY. N/A MEANS
CURRENT SKY AND/OR WEATHER CONDITIONS ARE NOT AVAILABLE.

MNZ060>063-068>070-220700-
   Twin Cities Metro

CITY           SKY/WX    TMP DP  RH WIND       PRES   REMARKS
TWIN CITIES    CLOUDY    38  36  92 S9        29.72S
6HR MIN TEMP:  36; 6HR MAX TEMP:  39; 6HR PCP:  0.04;

ST PAUL        CLOUDY    38  36  92 SE13      29.74S FOG
CRYSTAL        CLOUDY    39  37  92 S9        29.71R FOG
BLAINE         CLOUDY    39  39 100 S9        29.71S FOG
LAKEVILLE      CLOUDY    37  36  93 S12G17    29.72S FOG
EDEN PRAIRIE   CLOUDY    38  37  97 S12       29.70S FOG
6HR MIN TEMP:  37; 6HR MAX TEMP:  39; 6HR PCP:  0.01;

SOUTH ST PAUL  CLOUDY    38  37  94 S9        29.73S FOG
LAKE ELMO      CLOUDY    37  36  93 S9        29.74S
$$
MNZ001>005-007-008-013>017-022>024-027-028-220700-
   Northwest Minnesota

CITY           SKY/WX    TMP DP  RH WIND       PRES   REMARKS
BEMIDJI        CLOUDY    33  32  98 SE9       29.60S FOG     WCI  25
HALLOCK        CLOUDY    34  32  93 CALM      29.58S
ROSEAU         CLOUDY    34  28  80 SE6       29.61S WCI  29
WARROAD        CLOUDY    34  28  80 SE7       29.62F WCI  28
THIEF RVR FALL CLOUDY    34  32  93 SE7       29.59S WCI  28
CROOKSTON      MOCLDY    34  34 100 SE9       29.57F WCI  26
FOSSTON        CLOUDY    34  30  86 SE7       29.59S WCI  28
DETROIT LAKES  CLOUDY    34  34 100 SE9       29.57F FOG     WCI  26
MOORHEAD       CLOUDY    36  36 100 SE7       29.55F FOG
PARK RAPIDS    CLOUDY    34  34 100 SE13      29.60S FOG     WCI  25
MAHNOMEN       CLOUDY    34  33  96 SE7       29.57S WCI  28
$$
MNZ006-009>011-018-025>026-220700-
   North Central Minnesota

CITY           SKY/WX    TMP DP  RH WIND       PRES   REMARKS
BAUDETTE       CLOUDY    33  30  88 SE5       29.63S WCI  29
FLAG ISLAND    CLOUDY    32  30  93 SE13      29.63S WCI  22
INTL FALLS     CLOUDY    32  31  96 SE7       29.67S WCI  26
6HR MIN TEMP:  32; 6HR MAX TEMP:  32;

WASKISH        CLOUDY    34  32  93 CALM      29.63S
BIG FORK       CLOUDY    34  32  93 S7        29.66S FOG     WCI  28
LONGVILLE      MIX PCPN  34  34 100 SE7       29.63F WCI  28
GRAND RAPIDS   CLOUDY    34  32  93 SE8       29.66S VSB 3/4 WCI  27
CRANE LAKE     CLOUDY    30  30 100 CALM      29.71F FOG
ORR            CLOUDY    32  30  93 SE6       29.66S WCI  26
COOK           CLOUDY    34  32  93 SE5       29.69S FOG     WCI  30
WALKER         CLOUDY    33  32  99 SE6       29.62S FOG     WCI  27
$$
MNZ012-019>021-037-220700-
   Northeast Minnesota

CITY           SKY/WX    TMP DP  RH WIND       PRES   REMARKS
DULUTH         DRZL/FOG  34  32  92 SE7       29.71R VSB 1   WCI  28
6HR MIN TEMP:  32; 6HR MAX TEMP:  34; 6HR PCP:  0.01;

ELY            CLOUDY    32  32 100 SE7       29.71S FOG     WCI  26
HIBBING        CLOUDY    34  31  88 SE8       29.68S FOG     WCI  27
EVELETH        CLOUDY    32  32 100 SE5       29.71S FOG     WCI  27
DULUTH HARBOR  CLOUDY    36  34  93 CALM      29.75F
TWO HARBORS    CLOUDY    37  32  81 S2        29.73R
SILVER BAY     CLOUDY    36  34  93 S5        29.74R FOG
GRAND MARAIS     N/A     37  34  89 S14       29.79S
G MARAIS ARPRT MIX PCPN  30  28  93 S5        29.75S VSB<1/4 WCI  25
$$
MNZ029>031-032-039>041-046>048-054>057-064-220700-
   West Central Minnesota

CITY           SKY/WX    TMP DP  RH WIND       PRES   REMARKS
FERGUS FALLS   CLOUDY    36  36 100 SE12      29.58F FOG
WHEATON        CLOUDY    32  32 100 SE13      29.55F FOG     WCI  22
MORRIS         PTCLDY    36  36 100 SE17      29.55F FOG
ALEXANDRIA     CLOUDY    35  34  96 SE12      29.59S FOG     WCI  27
ELBOW LAKE     CLOUDY    35  35  99 SE14      29.55F FOG     WCI  25
WADENA         CLOUDY    34  34 100 SE9       29.60S FOG     WCI  26
GLENWOOD       CLOUDY    36  36 100 SE12      29.60S FOG
APPLETON       CLOUDY    37  36  93 SE14      29.56F
BENSON         CLOUDY    37  36  93 S13G18    29.58F FOG
ORTONVILLE     CLOUDY    36  34  93 SE15      29.53S
MADISON        PTCLDY    39  37  93 SE13      29.55F
WILLMAR        CLOUDY    37  36  93 SE16      29.62F FOG
$$
MNZ033>034-036-042>043-049>051-058-059-220700-
   Central Minnesota

CITY           SKY/WX    TMP DP  RH WIND       PRES   REMARKS
ST CLOUD       CLOUDY    38  35  89 SE13      29.66F FOG
6HR MIN TEMP:  36; 6HR MAX TEMP:  38; 6HR PCP: TRACE;

SAUK CENTRE    CLOUDY    34  34 100 SE10      29.62F FOG     WCI  26
PAYNESVILLE    DRIZZLE   33  33 100 E8        29.64S WCI  26
AITKIN         MIX PCPN  36  30  80 S9        29.65F
PINE RIVER     CLOUDY    34  34 100 SE7       29.68S FOG     WCI  28
BRAINERD       CLOUDY    35  34  96 SE9       29.65F FOG     WCI  28
STAPLES        CLOUDY    34  34 100 SE7       29.62S FOG     WCI  28
LONG PRAIRIE   CLOUDY    34  34 100 SE9       29.62F FOG     WCI  26
LITTLE FALLS   CLOUDY    34  34 100 SE9       29.65S FOG     WCI  26
LITCHFIELD     CLOUDY    37  37 100 SE8       29.65F FOG
BUFFALO        CLOUDY    37  36  93 SE8       29.69F FOG
MAPLE LAKE     CLOUDY    37  37  99 SE9       29.68F FOG
$$
MNZ037-044-045-052-053-220700-
   East Central Minnesota

CITY           SKY/WX    TMP DP  RH WIND       PRES   REMARKS
PRINCETON      CLOUDY    37  36  93 SE8       29.69F FOG
MORA           CLOUDY    34  32  93 SE3       29.72S
CAMBRIDGE      CLOUDY    37  32  81 SE6       29.69F HAZE
RUSH CITY      CLOUDY    36  34  94 SE8       29.72S
MOOSE LAKE     LGT RAIN  34  34 100 S6        29.69S WCI  29
HINCKLEY       RAIN      34  34 100 CALM      29.72S
CLOQUET        FOG       34  34 100 SE6       29.70F VSB 3/4 WCI  29
MCGREGOR       CLOUDY    34  34 100 S8        29.68S WCI  27
$$
MNZ071>073-080-081-089-090-097-098-220700-
   Southwest Minnesota

CITY           SKY/WX    TMP DP  RH WIND       PRES   REMARKS
MONTEVIDEO     CLOUDY    36  36 100 S10       29.59S FOG
GRANITE FALLS  CLOUDY    37  36  95 SE12      29.60S
CANBY          CLOUDY    37  36  94 SE9       29.55S
MARSHALL       CLOUDY    37  34  87 S15       29.57S
REDWOOD FALLS  CLOUDY    37  36  96 SE17      29.61F
OLIVIA         CLOUDY    36  36 100 SE13      29.61F FOG
PIPESTONE      CLOUDY    37  37 100 S20       29.54S FOG
WINDOM         CLOUDY    39  37  93 SE14G23   29.61F
WORTHINGTON    CLOUDY    37 -11  12 S20       29.59F
JACKSON        CLOUDY    37  36  93 S13       29.64S FOG
TRACY          CLOUDY    39  37  93 S14G21    29.57S
SLAYTON        CLOUDY    37  37 100 S17       29.58S FOG
$$
MNZ065>067-074>077-082>085-091>093-220700-
   South Central Minnesota

CITY           SKY/WX    TMP DP  RH WIND       PRES   REMARKS
MANKATO        CLOUDY    39  34  81 S16G22    29.69S
NEW ULM        CLOUDY    37  37 100 SE15      29.65F FOG
ST JAMES       CLOUDY    37  37 100 SE14      29.67S FOG
FAIRMONT       CLOUDY    37  36  93 S15       29.66S
GLENCOE        CLOUDY    38  38  99 SE10      29.67S FOG
FARIBAULT      CLOUDY    37  37 100 SE16G23   29.72S FOG
OWATONNA       CLOUDY    37  36  93 S14G21    29.72S FOG
WASECA         CLOUDY    36  36 100 SE14G21   29.72S FOG
ALBERT LEA     FOG       37  37 100 S13       29.72S VSB 1
$$
MNZ078>079-086>088-094>096-220700-
   Southeast Minnesota

CITY           SKY/WX    TMP DP  RH WIND       PRES   REMARKS
ROCHESTER      CLOUDY    35  34  96 S17       29.76F FOG     WCI  25
6HR MIN TEMP:  35; 6HR MAX TEMP:  37; 6HR PCP:  0.03;

RED WING       LGT RAIN  39  37  93 S10G16    29.76S
STANTON        CLOUDY    39  36  89 S13G20    29.73S FOG
DODGE CENTER   FOG       37  37 100 S20       29.74S VSB 1
WINONA         CLOUDY    37  36  93 S8G16     29.82S
AUSTIN         CLOUDY    37  36  93 S9G16     29.74S FOG
PRESTON        CLOUDY    34  33  96 S20G25    29.78F FOG     WCI  23
$$
ABBREVIATIONS USED IN REMARKS
   TC - TEMPERATURES IN CELSIUS
  WCI - WIND CHILL INDEX
   HX - HEAT INDEX
  VSB - VISIBILITY
$$



USA.gov is the U.S. government's official web portal to all federal, state and local government web resources and services.